铱星星座 170星 (IRIDIUM 170)

导读 | 星芒AI

IRIDIUM 170 是 Iridium 卫星通信公司运营的一颗低轨卫星,属于 Iridium NEXT 卫星星座的一部分。该星座由 66 颗工作卫星组成,提供全球范围的语音和数据通信服务,广泛应用于航空、航海、政府和应急通信等领域。IRIDIUM 170 于 2017 年发射,运行在极地轨道上,支持高速数据传输和卫星间链路,提升了网络覆盖和通信质量。其先进设计增强了抗干扰能力和信号稳定性,为用户提供可靠的移动通信解决方案。

基本信息
目录编号:
43930
目录名称:
IRIDIUM 170
国际标识:
2019-002J
轨道中心:
EARTH
卫星名称:
铱星星座 170星
卫星全名:
铱星星座 170星 (IRIDIUM 170)
卫星状态:
在轨 (已飞行2483 天)
发射日期:
2019-01-11 UTC
国别 :
美国 (US)
星等 :
--
轨道信息
数据来源 国际轨道数据 AOE轨道数据
星历时间 2025-10-28T19:07:05+0800
22小时前
查看轨道信息
2025-10-23T04:00:00+0800
6天前
查看轨道信息
半长轴 7032.025km 7032.012km
偏心率 0.0002227 0.0002101
轨道倾角 86.605° 86.605°
近地点辐角 89.622° 91.749°
升交点赤经 90.454° 92.811°
平近点角 270.525° 328.783°
近地点 652.323km 652.399km
远地点 655.457km 655.355km
周期 97.809分钟 97.809分钟
每日圈数 14.722523 14.722561
详细信息
平衡模式:
三轴稳定
覆盖范围:
全球
运营商:
铱星通信公司
运营商所在国:
美国
制造商(研发单位):
阿莱尼亚宇航公司
制造商所在国:
意大利
使用方式:
暂无
卫星简介
铱星(Iridium)是由共66个运作中的通信卫星组成的卫星通信系统。这个系统原本规划77个通信卫星,所以用原子序数为77的铱元素来命名。铱卫星允许人们使用手持型电子设备进行全球性的语音及数据通讯。该卫星仍在工作。
2D轨道图
3D轨道图
轨道高度分析图
轨道倾角分析图
轨道综合分析图
查看轨道综合分析图